Home   Weather   Zhengzhou   Past weeks

Flag for China Past Weather in Zhengzhou, Henan, China — Yesterday and Last 2 Weeks

Now
86 °F

Scattered clouds.


Feels Like: 97 °F
Forecast: 74 / 86 °F
Wind: 6 mph from East

Location: Zhengzhou Airport

Current Time: Aug 18, 2017 at 11:24:49 am

Latest Report: Aug 18, 2017 at 11:00 am


Visibility: 3 mi

Pressure: 29.77 "Hg

Humidity: 75%

Dew Point: 77 °F

Location of ZhengzhouLocation

Past Weather in Zhengzhou — Graph

°F

Zhengzhou Temperature Yesterday

Maximum temperature yesterday: 93 °F (at 1:00 pm)
Minimum temperature yesterday: 77 °F (at 5:00 am)
Average temperature yesterday: 85 °F

High & Low Weather Summary for the Past Weeks

 TemperatureHumidityPressure
High99 °F (Aug 6, 1:00 pm)100% (Aug 4, 3:00 am)29.80 "Hg (Aug 4, 3:00 am)
Low72 °F (Aug 9, 6:00 am)28% (Aug 9, 2:00 pm)29.42 "Hg (Aug 3, 4:00 pm)
Average84 °F73%29.62 "Hg
* Reported Aug 3 10:00 am — Aug 18 10:00 am, Zhengzhou. Weather by CustomWeather, © 2017

Note: Actual official high and low records may vary slightly from our data, if they occured in-between our weather recording intervals... More about our weather records

Advertising

Zhengzhou Weather History for the Previous 24 Hours

Scroll right to see more
 ConditionsComfort  
Time TempWeatherWind HumidityBarometerVisibility
10:00 am
Fri, Aug 18
82 °FFog.6 mph84%29.80 "Hg1 mi
9:00 am79 °FFog.6 mph94%29.77 "Hg1 mi
8:00 am79 °FFog.6 mph94%29.77 "Hg1 mi
7:00 am77 °FFog.6 mph94%29.74 "Hg1 mi
6:00 am77 °FFog.6 mph94%29.74 "Hg1 mi
5:00 am77 °FFog.6 mph94%29.74 "Hg2 mi
4:00 am79 °FFog.6 mph94%29.74 "Hg3 mi
3:00 am79 °FPassing clouds.6 mph94%29.74 "Hg4 mi
2:00 am79 °FPassing clouds.1 mph94%29.74 "Hg5 mi
1:00 am79 °FPassing clouds.3 mph94%29.74 "Hg5 mi
12:00 am81 °FPassing clouds.1 mph89%29.74 "Hg5 mi
11:00 pm
Thu, Aug 17
82 °FPassing clouds.1 mph84%29.74 "Hg5 mi
10:00 pm82 °FClear.1 mph84%29.74 "Hg10 mi
9:00 pm82 °FClear.3 mph79%29.74 "Hg10 mi
8:00 pm84 °FPassing clouds.3 mph70%29.71 "HgN/A
7:00 pm86 °FPassing clouds.3 mph66%29.68 "HgN/A
6:00 pm90 °FPassing clouds.6 mph52%29.68 "HgN/A
5:00 pm91 °FPassing clouds.8 mph46%29.68 "HgN/A
4:00 pm93 °FScattered clouds.6 mph44%29.68 "HgN/A
3:00 pm91 °FPartly sunny.6 mph46%29.68 "HgN/A
2:00 pm93 °FPartly sunny.8 mph44%29.71 "HgN/A
1:00 pm93 °FPartly sunny.8 mph44%29.71 "HgN/A
12:00 pm91 °FScattered clouds.8 mph56%29.74 "Hg5 mi
11:00 am91 °FPassing clouds.3 mph59%29.74 "Hg5 mi
Weather by CustomWeather, © 2017

See weather overviewHow to use our weather pages